Weather History for Valentine, NE

Change the Weather History Date:

Friday, December 30, 2011

  Actual Average Record
Temperature  
Mean Temperature 41 °F 23 °F  
Max Temperature 50 °F 36 °F 72 °F (1904)
Min Temperature 31 °F 10 °F -30 °F (1990)
Degree Days  
Heating Degree Days 24 42  
Month to date heating degree days 1096 1233  
Since 1 July heating degree days 2551 2851  
Cooling Degree Days 0 0  
Month to date cooling degree days 0 0  
Year to date cooling degree days 912 821  
Moisture  
Dew Point 22 °F    
Average Humidity 57    
Maximum Humidity 82    
Minimum Humidity 31    
Precipitation  
Precipitation 0.00 in 0.01 in 0.35 in (1931)
Month to date precipitation 0.19 0.36  
Year to date precipitation 21.98 20.01  
Snow  
Snow 0.00 in 0.20 in 6.00 in (1923)
Month to date snowfall 1.4 5.0  
Since 1 July snowfall 4.0 12.6  
Snow Depth 0.00 in    
Sea Level Pressure  
Sea Level Pressure 29.79 in    
Wind  
Wind Speed 10 mph (WSW)    
Max Wind Speed 20 mph    
Max Gust Speed 24 mph    
Visibility 10 miles    
Events      
T = Trace of Precipitation, MM = Missing Value Source: NWS Daily Summary

Daily Weather History Graph

Daily Weather History Graph

Search for Another Location

Airport:

Trip Planner

Search our weather history database for the weather conditions in past years. The results will help you decide how hot, cold, wet, or windy it might be!

Date:

Astronomy

Dec. 30, 2011 Rise Set
Actual Time 8:12 AM CST 5:16 PM CST
Civil Twilight 7:40 AM CST 5:48 PM CST
Nautical Twilight 7:04 AM CST 6:24 PM CST
Astronomical Twilight 6:30 AM CST 6:59 PM CST
Moon 11:23 AM CST (12/30) No Moon Set
Length of Visible Light 10h 08m
Length of Day
9h 03m
Waxing Crescent, 36% of the Moon is Illuminated
Dec 30
Waxing Crescent
Jan 1
First Quarter
Jan 9
Full
Jan 16
Last Quarter
Jan 23
New

Hourly Weather History & Observations

Time (CST) Temp. Windchill Dew Point Humidity Pressure Visibility Wind Dir Wind Speed Gust Speed Precip Events Conditions
12:52 AM 34.0 °F 25.5 °F 28.0 °F 79% 29.73 in 10.0 mi West 11.5 mph - N/A   Clear
1:52 AM 36.0 °F 26.3 °F 27.0 °F 70% 29.74 in 10.0 mi West 16.1 mph - N/A   Clear
2:52 AM 37.0 °F 28.5 °F 24.1 °F 59% 29.76 in 10.0 mi West 13.8 mph - N/A   Clear
3:52 AM 36.0 °F 28.0 °F 23.0 °F 59% 29.79 in 10.0 mi West 11.5 mph - N/A   Clear
4:52 AM 37.0 °F 28.1 °F 21.9 °F 54% 29.80 in 10.0 mi West 15.0 mph - N/A   Clear
5:52 AM 35.1 °F 25.9 °F 21.9 °F 59% 29.82 in 10.0 mi WNW 13.8 mph - N/A   Clear
6:52 AM 33.1 °F 24.4 °F 21.9 °F 64% 29.85 in 10.0 mi WNW 11.5 mph - N/A   Clear
7:52 AM 33.1 °F 25.5 °F 21.0 °F 61% 29.87 in 10.0 mi WNW 9.2 mph - N/A   Clear
8:52 AM 34.0 °F 26.0 °F 21.0 °F 59% 29.89 in 10.0 mi West 10.4 mph - N/A   Clear
9:52 AM 39.0 °F 32.3 °F 21.9 °F 50% 29.90 in 10.0 mi West 10.4 mph - N/A   Clear
10:52 AM 42.1 °F 34.2 °F 21.9 °F 45% 29.91 in 10.0 mi WNW 16.1 mph - N/A   Clear
11:52 AM 46.0 °F 40.2 °F 21.9 °F 39% 29.88 in 10.0 mi WNW 12.7 mph 21.9 mph N/A   Clear
12:52 PM 46.9 °F - 19.9 °F 34% 29.85 in 10.0 mi WNW 16.1 mph - N/A   Clear
1:52 PM 48.9 °F - 19.0 °F 31% 29.81 in 10.0 mi NW 9.2 mph - N/A   Clear
3:52 PM 48.0 °F - 19.9 °F 33% 29.80 in 10.0 mi SSW 4.6 mph - N/A   Clear
4:52 PM 44.6 °F 42.2 °F 21.2 °F 39% 29.75 in 10.0 mi South 4.6 mph - N/A   Clear
5:52 PM 37.9 °F 32.7 °F 21.0 °F 51% 29.80 in 10.0 mi SSE 6.9 mph - N/A   Clear
6:52 PM 37.9 °F 32.1 °F 21.0 °F 51% 29.78 in 10.0 mi South 8.1 mph - N/A   Clear
7:52 PM 37.0 °F 31.0 °F 19.9 °F 50% 29.76 in 10.0 mi SE 8.1 mph - N/A   Clear
8:52 PM 33.1 °F 26.9 °F 19.9 °F 59% 29.73 in 10.0 mi East 6.9 mph - N/A   Clear
9:52 PM 36.0 °F 30.3 °F 21.0 °F 55% 29.69 in 10.0 mi South 6.9 mph - N/A   Clear
10:52 PM 39.0 °F 32.8 °F 21.9 °F 50% 29.64 in 10.0 mi SSW 9.2 mph - N/A   Clear
11:52 PM 37.0 °F - 23.0 °F 57% 29.60 in 10.0 mi Calm Calm - N/A   Clear